Miscellaneous Local Product
Issued by NWS Hastings, NE

Home | Current Version | Previous Version | Graphics & Text | Print | Product List | Glossary On
Versions: 1 2 3 4 5 6 7 8 9 10 11 12 13 14 15 16 17 18 19 20 21 22 23 24 25 26 27 28 29 30 31 32 33 34 35 36 37 38 39 40 41 42 43 44 45 46 47 48 49 50
000
AXUS43 KGID 221702
MISGRI

GID CWA HOURLY WEATHER ROUNDUP
NATIONAL WEATHER SERVICE HASTINGS NE
1200 PM CDT FRI MAY 22 2015

NOTE: "FAIR" INDICATES FEW OR NO CLOUDS BELOW 12,000 FEET WITH NO
SIGNIFICANT WEATHER AND/OR OBSTRUCTIONS TO VISIBILITY.

...SOUTH CENTRAL NEBRASKA...

CITY           SKY/WX    TMP DP  RH WIND       PRES   REMARKS
GRAND ISLAND   CLOUDY    55  45  68 SE7       30.25R
HASTINGS       LGT RAIN  52  47  83 S5        30.23R
KEARNEY        CLOUDY    48  45  87 S10       30.24R
ORD            CLOUDY    55  45  68 SE6       30.21S
YORK           CLOUDY    55  48  76 SE6       30.24S
AURORA         CLOUDY    56  46  68 SE7       30.25R
LEXINGTON      RAIN      49  47  90 SE8       30.21R
HOLDREGE       RAIN      48  44  87 S14       30.22R
HEBRON         CLOUDY    58  45  62 S8        30.24R

...NEBRASKA PANHANDLE...

CITY           SKY/WX    TMP DP  RH WIND       PRES   REMARKS
CHADRON        CLOUDY    56  43  61 S20       30.10R
ALLIANCE       LGT RAIN  48  44  86 SE15      30.10F
SCOTTSBLUFF    LGT RAIN  50  32  50 SE14      30.08S
SIDNEY         LGT RAIN  48  45  89 E17       30.08F

...WESTERN AND NORTH CENTRAL NEBRASKA...

CITY           SKY/WX    TMP DP  RH WIND       PRES   REMARKS
VALENTINE      CLOUDY    60  40  47 S20       30.17R
AINSWORTH      CLOUDY    60  41  51 S15G21    30.19R
ONEILL         CLOUDY    64  42  45 S10       30.21S
BROKEN BOW     LGT RAIN  51  45  79 S13G24    30.21S
IMPERIAL       LGT RAIN  49  47  93 SE15      30.11S FOG
NORTH PLATTE   LGT RAIN  47  45  93 E12       30.18S
MCCOOK         LGT RAIN  48  46  93 SE16      30.14F FOG

...EASTERN NEBRASKA...

CITY           SKY/WX    TMP DP  RH WIND       PRES   REMARKS
NORFOLK        CLOUDY    66  37  34 S10       30.22S
SO SIOUX CITY  PTSUNNY   71  41  33 S5        30.22S
TEKAMAH        CLOUDY    71  40  32 E3        30.23R
COLUMBUS       CLOUDY    63  43  48 S7        30.26S
ALBION         CLOUDY    60  40  47 S10       30.24R
OMAHA EPPLEY   CLOUDY    67  44  43 SE5       30.23F
OFFUTT AFB     CLOUDY    66  48  51 VRB2      30.23S
MILLARD        CLOUDY    66  47  48 CALM      30.23F
LINCOLN        CLOUDY    60  48  64 SE6       30.25S
NEBRASKA CITY  CLOUDY    62  45  54 SW8       30.25S
BEATRICE       CLOUDY    59  47  65 S6        30.24F
FALLS CITY     CLOUDY    62  48  60 S6        30.25F

...NORTHERN KANSAS...

CITY           SKY/WX    TMP DP  RH WIND       PRES   REMARKS
GOODLAND       RAIN      49  48  97 SE20G31   30.07S FOG
HILL CITY      LGT RAIN  52  47  83 S15G21    30.17F
NORTON         CLOUDY    50  45  81 E10       30.16S
PHILLIPSBURG   CLOUDY    54  50  87 SE9       30.20R
SMITH CENTER   CLOUDY    52  48  87 SE12      30.21S
HAYS           CLOUDY    54  43  66 S15       30.18S
RUSSELL        CLOUDY    54  49  83 SE17      30.18S
CONCORDIA      CLOUDY    57  48  72 SE9       30.22R
SALINA         CLOUDY    57  50  77 S10       30.22S
TOPEKA         CLOUDY    61  48  62 SE7       30.25F



USA.gov is the U.S. government's official web portal to all federal, state and local government web resources and services.